contact:dominique.lefevre@mio.osupytheas.fr, maurice.libes@osupytheas.fr, didier.mallarino@osupytheas.fr
Project:EMSO http://www.emso-fr.org/EMSO-France
Depth: 2436.0 m
Title:EMSO Ligure Ouest : Data MII capteur MICROCAT
DateTime_Computer,Latitude,Longitude,Temperature,Conductivity,Pressure,DateTime_Instrument
DateTime_Computer,Latitude,Longitude,degC,S m-1,dbar,DateTime_Instrument
2020-09-22T00:01:08Z,42.805,6.029,13.2977,4.59980,2470.156,2020-9-22T02:02:00Z
2020-09-22T00:04:10Z,42.805,6.029,13.2980,4.59979,2470.194,2020-9-22T02:05:02Z
2020-09-22T00:07:13Z,42.805,6.029,13.2982,4.59979,2470.203,2020-9-22T02:08:05Z
2020-09-22T00:10:15Z,42.805,6.029,13.2977,4.59985,2470.171,2020-9-22T02:11:07Z
2020-09-22T00:13:17Z,42.805,6.029,13.2981,4.59979,2470.156,2020-9-22T02:14:09Z
2020-09-22T00:16:18Z,42.805,6.029,13.2979,4.59981,2470.18,2020-9-22T02:17:10Z
2020-09-22T00:19:22Z,42.805,6.029,13.2982,4.59981,2470.171,2020-9-22T02:20:14Z
2020-09-22T00:22:23Z,42.805,6.029,13.2976,4.59981,2470.133,2020-9-22T02:23:15Z
2020-09-22T00:25:27Z,42.805,6.029,13.2979,4.59978,2470.18,2020-9-22T02:26:19Z
2020-09-22T00:28:29Z,42.805,6.029,13.2978,4.59983,2470.171,2020-9-22T02:29:21Z
2020-09-22T00:31:33Z,42.805,6.029,13.2977,4.59979,2470.18,2020-9-22T02:32:25Z
2020-09-22T00:34:37Z,42.805,6.029,13.2979,4.59980,2470.147,2020-9-22T02:35:29Z
2020-09-22T00:37:40Z,42.805,6.029,13.2982,4.59981,2470.156,2020-9-22T02:38:32Z
2020-09-22T00:40:44Z,42.805,6.029,13.2979,4.59981,2470.143,2020-9-22T02:41:36Z
2020-09-22T00:43:46Z,42.805,6.029,13.2982,4.59981,2470.156,2020-9-22T02:44:38Z
2020-09-22T00:46:48Z,42.805,6.029,13.2980,4.59981,2470.18,2020-9-22T02:47:40Z
2020-09-22T00:49:50Z,42.805,6.029,13.2981,4.59979,2470.18,2020-9-22T02:50:42Z
2020-09-22T00:52:52Z,42.805,6.029,13.2983,4.59980,2470.133,2020-9-22T02:53:44Z
2020-09-22T00:55:53Z,42.805,6.029,13.2980,4.59980,2470.124,2020-9-22T02:56:45Z
2020-09-22T00:58:54Z,42.805,6.029,13.2977,4.59981,2470.18,2020-9-22T02:59:46Z
2020-09-22T01:01:56Z,42.805,6.029,13.2978,4.59980,2470.156,2020-9-22T03:02:49Z
2020-09-22T01:05:00Z,42.805,6.029,13.2979,4.59985,2470.147,2020-9-22T03:05:52Z
2020-09-22T01:08:03Z,42.805,6.029,13.2976,4.59979,2470.156,2020-9-22T03:08:55Z
2020-09-22T01:11:06Z,42.805,6.029,13.2976,4.59981,2470.156,2020-9-22T03:11:58Z
2020-09-22T01:14:10Z,42.805,6.029,13.2980,4.59982,2470.171,2020-9-22T03:15:02Z
2020-09-22T01:17:13Z,42.805,6.029,13.2977,4.59980,2470.133,2020-9-22T03:18:05Z
2020-09-22T01:20:15Z,42.805,6.029,13.2979,4.59979,2470.124,2020-9-22T03:21:07Z
2020-09-22T01:23:19Z,42.805,6.029,13.2977,4.59981,2470.133,2020-9-22T03:24:11Z
2020-09-22T01:26:24Z,42.805,6.029,13.2977,4.59981,2470.156,2020-9-22T03:27:16Z
2020-09-22T01:29:27Z,42.805,6.029,13.2979,4.59978,2470.147,2020-9-22T03:30:19Z
2020-09-22T01:32:30Z,42.805,6.029,13.2982,4.59979,2470.133,2020-9-22T03:33:23Z
2020-09-22T01:35:35Z,42.805,6.029,13.2981,4.59980,2470.171,2020-9-22T03:36:27Z
2020-09-22T01:38:37Z,42.805,6.029,13.2979,4.59979,2470.147,2020-9-22T03:39:29Z
2020-09-22T01:41:40Z,42.805,6.029,13.2978,4.59980,2470.124,2020-9-22T03:42:33Z
2020-09-22T01:44:42Z,42.805,6.029,13.2979,4.59979,2470.171,2020-9-22T03:45:34Z
2020-09-22T01:47:46Z,42.805,6.029,13.2976,4.59979,2470.11,2020-9-22T03:48:38Z
2020-09-22T01:50:47Z,42.805,6.029,13.2977,4.59985,2470.133,2020-9-22T03:51:39Z
2020-09-22T01:53:51Z,42.805,6.029,13.2980,4.59981,2470.11,2020-9-22T03:54:43Z
2020-09-22T01:56:54Z,42.805,6.029,13.2977,4.59979,2470.11,2020-9-22T03:57:46Z
2020-09-22T01:59:55Z,42.805,6.029,13.2976,4.59981,2470.087,2020-9-22T04:00:47Z
2020-09-22T02:02:59Z,42.805,6.029,13.2978,4.59980,2470.133,2020-9-22T04:03:51Z
2020-09-22T02:06:02Z,42.805,6.029,13.2976,4.59978,2470.087,2020-9-22T04:06:55Z
2020-09-22T02:09:07Z,42.805,6.029,13.2977,4.59979,2470.11,2020-9-22T04:09:59Z
2020-09-22T02:12:10Z,42.805,6.029,13.2978,4.59980,2470.11,2020-9-22T04:13:02Z
2020-09-22T02:15:12Z,42.805,6.029,13.2976,4.59978,2470.087,2020-9-22T04:16:04Z
2020-09-22T02:18:14Z,42.805,6.029,13.2978,4.59979,2470.124,2020-9-22T04:19:07Z
2020-09-22T02:21:17Z,42.805,6.029,13.2978,4.59981,2470.087,2020-9-22T04:22:09Z
2020-09-22T02:24:18Z,42.805,6.029,13.2978,4.59980,2470.087,2020-9-22T04:25:10Z
2020-09-22T02:27:20Z,42.805,6.029,13.2978,4.59981,2470.133,2020-9-22T04:28:12Z
2020-09-22T02:30:22Z,42.805,6.029,13.2977,4.59981,2470.073,2020-9-22T04:31:15Z
2020-09-22T02:33:26Z,42.805,6.029,13.2979,4.59979,2470.1,2020-9-22T04:34:19Z
2020-09-22T02:36:31Z,42.805,6.029,13.2978,4.59979,2470.11,2020-9-22T04:37:23Z
2020-09-22T02:39:35Z,42.805,6.029,13.2982,4.59979,2470.063,2020-9-22T04:40:27Z
2020-09-22T02:42:38Z,42.805,6.029,13.2978,4.59978,2470.087,2020-9-22T04:43:30Z
2020-09-22T02:45:42Z,42.805,6.029,13.2979,4.59979,2470.1,2020-9-22T04:46:34Z
2020-09-22T02:48:43Z,42.805,6.029,13.2979,4.59980,2470.087,2020-9-22T04:49:35Z
2020-09-22T02:51:45Z,42.805,6.029,13.2976,4.59979,2470.04,2020-9-22T04:52:37Z
2020-09-22T02:54:46Z,42.805,6.029,13.2978,4.59978,2470.087,2020-9-22T04:55:39Z
2020-09-22T02:57:50Z,42.805,6.029,13.2980,4.59978,2470.049,2020-9-22T04:58:42Z
2020-09-22T03:00:54Z,42.805,6.029,13.2979,4.59978,2470.087,2020-9-22T05:01:46Z
2020-09-22T03:03:58Z,42.805,6.029,13.2979,4.59978,2470.053,2020-9-22T05:04:50Z
2020-09-22T03:07:01Z,42.805,6.029,13.2979,4.59980,2470.087,2020-9-22T05:07:53Z
2020-09-22T03:10:05Z,42.805,6.029,13.2974,4.59980,2470.063,2020-9-22T05:10:57Z
2020-09-22T03:13:08Z,42.805,6.029,13.2979,4.59979,2470.1,2020-9-22T05:14:00Z
2020-09-22T03:16:11Z,42.805,6.029,13.2981,4.59988,2470.063,2020-9-22T05:17:03Z
2020-09-22T03:19:14Z,42.805,6.029,13.2977,4.59979,2470.063,2020-9-22T05:20:07Z
2020-09-22T03:22:16Z,42.805,6.029,13.2979,4.59979,2470.063,2020-9-22T05:23:08Z
2020-09-22T03:25:20Z,42.805,6.029,13.2979,4.59978,2470.053,2020-9-22T05:26:12Z
2020-09-22T03:28:21Z,42.805,6.029,13.2975,4.59980,2470.077,2020-9-22T05:29:13Z
2020-09-22T03:31:25Z,42.805,6.029,13.2977,4.59979,2470.053,2020-9-22T05:32:17Z
2020-09-22T03:34:26Z,42.805,6.029,13.2976,4.59980,2470.04,2020-9-22T05:35:18Z
2020-09-22T03:37:29Z,42.805,6.029,13.2980,4.59981,2470.077,2020-9-22T05:38:22Z
2020-09-22T03:40:31Z,42.805,6.029,13.2979,4.59978,2470.077,2020-9-22T05:41:24Z
2020-09-22T03:43:35Z,42.805,6.029,13.2978,4.59980,2470.04,2020-9-22T05:44:28Z
2020-09-22T03:46:39Z,42.805,6.029,13.2979,4.59978,2470.053,2020-9-22T05:47:31Z
2020-09-22T03:49:43Z,42.805,6.029,13.2976,4.59984,2470.053,2020-9-22T05:50:35Z
2020-09-22T03:52:46Z,42.805,6.029,13.2981,4.59978,2470.063,2020-9-22T05:53:38Z
2020-09-22T03:55:50Z,42.805,6.029,13.2982,4.59978,2470.077,2020-9-22T05:56:42Z
2020-09-22T03:58:54Z,42.805,6.029,13.2980,4.59978,2470.053,2020-9-22T05:59:46Z
2020-09-22T04:01:56Z,42.805,6.029,13.2982,4.59979,2470.053,2020-9-22T06:02:48Z
2020-09-22T04:04:58Z,42.805,6.029,13.2979,4.59978,2470.063,2020-9-22T06:05:51Z
2020-09-22T04:08:02Z,42.805,6.029,13.2977,4.59978,2470.053,2020-9-22T06:08:54Z
2020-09-22T04:11:04Z,42.805,6.029,13.2977,4.59978,2470.053,2020-9-22T06:11:56Z
2020-09-22T04:14:07Z,42.805,6.029,13.2976,4.59979,2470.04,2020-9-22T06:14:59Z
2020-09-22T04:17:10Z,42.805,6.029,13.2975,4.59978,2470.053,2020-9-22T06:18:02Z
2020-09-22T04:20:15Z,42.805,6.029,13.2976,4.59978,2470.04,2020-9-22T06:21:07Z
2020-09-22T04:23:16Z,42.805,6.029,13.2976,4.59979,2470.04,2020-9-22T06:24:09Z
2020-09-22T04:26:18Z,42.805,6.029,13.2981,4.59978,2470.017,2020-9-22T06:27:10Z
2020-09-22T04:29:20Z,42.805,6.029,13.2973,4.59978,2470.04,2020-9-22T06:30:12Z
2020-09-22T04:32:22Z,42.805,6.029,13.2979,4.59979,2470.063,2020-9-22T06:33:15Z
2020-09-22T04:35:27Z,42.805,6.029,13.2979,4.59978,2470.04,2020-9-22T06:36:19Z
2020-09-22T04:38:30Z,42.805,6.029,13.2976,4.59978,2470.04,2020-9-22T06:39:22Z
2020-09-22T04:41:34Z,42.805,6.029,13.2979,4.59979,2470.03,2020-9-22T06:42:26Z
2020-09-22T04:44:36Z,42.805,6.029,13.2976,4.59979,2470.017,2020-9-22T06:45:28Z
2020-09-22T04:47:38Z,42.805,6.029,13.2979,4.59978,2469.993,2020-9-22T06:48:30Z
2020-09-22T04:50:41Z,42.805,6.029,13.2978,4.59978,2470.017,2020-9-22T06:51:33Z
2020-09-22T04:53:44Z,42.805,6.029,13.2975,4.59979,2470.04,2020-9-22T06:54:36Z
2020-09-22T04:56:48Z,42.805,6.029,13.2976,4.59979,2470.04,2020-9-22T06:57:40Z
2020-09-22T04:59:51Z,42.805,6.029,13.2981,4.59980,2470.03,2020-9-22T07:00:44Z
2020-09-22T05:02:55Z,42.805,6.029,13.2983,4.59980,2470.053,2020-9-22T07:03:47Z
2020-09-22T05:05:56Z,42.805,6.029,13.2978,4.59978,2470.053,2020-9-22T07:06:48Z
2020-09-22T05:09:01Z,42.805,6.029,13.2980,4.59979,2470.053,2020-9-22T07:09:53Z
2020-09-22T05:12:04Z,42.805,6.029,13.2977,4.59978,2470.017,2020-9-22T07:12:57Z
2020-09-22T05:15:09Z,42.805,6.029,13.2979,4.59978,2470.017,2020-9-22T07:16:02Z
2020-09-22T05:18:14Z,42.805,6.029,13.2978,4.59978,2470.04,2020-9-22T07:19:06Z
2020-09-22T05:21:16Z,42.805,6.029,13.2979,4.59978,2470.03,2020-9-22T07:22:08Z
2020-09-22T05:24:18Z,42.805,6.029,13.2979,4.59978,2470.026,2020-9-22T07:25:10Z
2020-09-22T05:27:19Z,42.805,6.029,13.2978,4.59978,2470.053,2020-9-22T07:28:11Z
2020-09-22T05:30:23Z,42.805,6.029,13.2978,4.59979,2470.063,2020-9-22T07:31:15Z
2020-09-22T05:33:27Z,42.805,6.029,13.2975,4.59978,2470.017,2020-9-22T07:34:19Z
2020-09-22T05:36:30Z,42.805,6.029,13.2976,4.59979,2470.017,2020-9-22T07:37:23Z
2020-09-22T05:39:32Z,42.805,6.029,13.2978,4.59978,2470.053,2020-9-22T07:40:24Z
2020-09-22T05:42:35Z,42.805,6.029,13.2976,4.59979,2470.04,2020-9-22T07:43:27Z
2020-09-22T05:45:39Z,42.805,6.029,13.2976,4.59979,2470.03,2020-9-22T07:46:31Z
2020-09-22T05:48:43Z,42.805,6.029,13.2978,4.59980,2470.04,2020-9-22T07:49:35Z
2020-09-22T05:51:45Z,42.805,6.029,13.2979,4.59979,2470.017,2020-9-22T07:52:37Z
2020-09-22T05:54:46Z,42.805,6.029,13.2979,4.59978,2470.017,2020-9-22T07:55:38Z
2020-09-22T05:57:51Z,42.805,6.029,13.2976,4.59978,2470.053,2020-9-22T07:58:43Z
2020-09-22T06:00:55Z,42.805,6.029,13.2982,4.59978,2470.017,2020-9-22T08:01:47Z
2020-09-22T06:03:57Z,42.805,6.029,13.2977,4.59979,2470.04,2020-9-22T08:04:49Z
2020-09-22T06:06:59Z,42.805,6.029,13.2979,4.59978,2470.04,2020-9-22T08:07:51Z
2020-09-22T06:10:00Z,42.805,6.029,13.2976,4.59979,2470.03,2020-9-22T08:10:52Z
2020-09-22T06:13:04Z,42.805,6.029,13.2978,4.59978,2470.04,2020-9-22T08:13:56Z
2020-09-22T06:16:06Z,42.805,6.029,13.2978,4.59979,2470.04,2020-9-22T08:16:57Z
2020-09-22T06:19:09Z,42.805,6.029,13.2974,4.59981,2470.04,2020-9-22T08:20:01Z
2020-09-22T06:22:10Z,42.805,6.029,13.2976,4.59978,2470.04,2020-9-22T08:23:02Z
2020-09-22T06:25:13Z,42.805,6.029,13.2979,4.59979,2470.04,2020-9-22T08:26:05Z
2020-09-22T06:28:17Z,42.805,6.029,13.2975,4.59979,2470.053,2020-9-22T08:29:09Z
2020-09-22T06:31:18Z,42.805,6.029,13.2980,4.59978,2470.1,2020-9-22T08:32:11Z
2020-09-22T06:34:22Z,42.805,6.029,13.2978,4.59978,2470.063,2020-9-22T08:35:14Z
2020-09-22T06:37:23Z,42.805,6.029,13.2977,4.59979,2470.063,2020-9-22T08:38:15Z
2020-09-22T06:40:24Z,42.805,6.029,13.2974,4.59978,2470.063,2020-9-22T08:41:16Z
2020-09-22T06:43:27Z,42.805,6.029,13.2974,4.59979,2470.053,2020-9-22T08:44:20Z
2020-09-22T06:46:31Z,42.805,6.029,13.2977,4.59982,2470.063,2020-9-22T08:47:23Z
2020-09-22T06:49:34Z,42.805,6.029,13.2980,4.59978,2470.063,2020-9-22T08:50:26Z
2020-09-22T06:52:37Z,42.805,6.029,13.2976,4.59979,2470.087,2020-9-22T08:53:29Z
2020-09-22T06:55:39Z,42.805,6.029,13.2979,4.59979,2470.063,2020-9-22T08:56:31Z
2020-09-22T06:58:42Z,42.805,6.029,13.2976,4.59980,2470.063,2020-9-22T08:59:35Z
2020-09-22T07:01:45Z,42.805,6.029,13.2982,4.59980,2470.063,2020-9-22T09:02:37Z
2020-09-22T07:04:48Z,42.805,6.029,13.2976,4.59978,2470.077,2020-9-22T09:05:40Z
2020-09-22T07:07:52Z,42.805,6.029,13.2976,4.59983,2470.087,2020-9-22T09:08:44Z
2020-09-22T07:10:55Z,42.805,6.029,13.2978,4.59978,2470.087,2020-9-22T09:11:47Z
2020-09-22T07:13:56Z,42.805,6.029,13.2978,4.59981,2470.087,2020-9-22T09:14:48Z
2020-09-22T07:17:00Z,42.805,6.029,13.2979,4.59980,2470.087,2020-9-22T09:17:53Z
2020-09-22T07:20:05Z,42.805,6.029,13.2981,4.59979,2470.1,2020-9-22T09:20:57Z
2020-09-22T07:23:08Z,42.805,6.029,13.2983,4.59979,2470.124,2020-9-22T09:24:01Z
2020-09-22T07:26:12Z,42.805,6.029,13.2976,4.59978,2470.1,2020-9-22T09:27:04Z
2020-09-22T07:29:16Z,42.805,6.029,13.2982,4.59979,2470.11,2020-9-22T09:30:08Z
2020-09-22T07:32:20Z,42.805,6.029,13.2974,4.59979,2470.1,2020-9-22T09:33:13Z
2020-09-22T07:35:24Z,42.805,6.029,13.2981,4.59981,2470.133,2020-9-22T09:36:16Z
2020-09-22T07:38:25Z,42.805,6.029,13.2979,4.59979,2470.087,2020-9-22T09:39:18Z
2020-09-22T07:41:27Z,42.805,6.029,13.2978,4.59980,2470.133,2020-9-22T09:42:19Z
2020-09-22T07:44:31Z,42.805,6.029,13.2974,4.59978,2470.11,2020-9-22T09:45:23Z
2020-09-22T07:47:33Z,42.805,6.029,13.2979,4.59979,2470.063,2020-9-22T09:48:25Z
2020-09-22T07:50:37Z,42.805,6.029,13.2983,4.59979,2470.11,2020-9-22T09:51:29Z
2020-09-22T07:53:39Z,42.805,6.029,13.2975,4.59980,2470.119,2020-9-22T09:54:31Z
2020-09-22T07:56:43Z,42.805,6.029,13.2977,4.59979,2470.133,2020-9-22T09:57:36Z
2020-09-22T07:59:47Z,42.805,6.029,13.2982,4.59979,2470.171,2020-9-22T10:00:40Z
2020-09-22T08:02:49Z,42.805,6.029,13.2976,4.59980,2470.124,2020-9-22T10:03:42Z
2020-09-22T08:05:53Z,42.805,6.029,13.2978,4.59980,2470.147,2020-9-22T10:06:45Z
2020-09-22T08:08:54Z,42.805,6.029,13.2976,4.59978,2470.147,2020-9-22T10:09:47Z
2020-09-22T08:11:58Z,42.805,6.029,13.2981,4.59979,2470.133,2020-9-22T10:12:50Z
2020-09-22T08:15:01Z,42.805,6.029,13.2975,4.59980,2470.171,2020-9-22T10:15:53Z
2020-09-22T08:18:04Z,42.805,6.029,13.2976,4.59980,2470.171,2020-9-22T10:18:56Z
2020-09-22T08:21:08Z,42.805,6.029,13.2979,4.59978,2470.156,2020-9-22T10:22:00Z
2020-09-22T08:24:11Z,42.805,6.029,13.2974,4.59979,2470.171,2020-9-22T10:25:03Z
2020-09-22T08:27:14Z,42.805,6.029,13.2976,4.59980,2470.194,2020-9-22T10:28:06Z
2020-09-22T08:30:18Z,42.805,6.029,13.2977,4.59980,2470.143,2020-9-22T10:31:10Z
2020-09-22T08:33:21Z,42.805,6.029,13.2975,4.59979,2470.171,2020-9-22T10:34:14Z
2020-09-22T08:36:26Z,42.805,6.029,13.2983,4.59981,2470.156,2020-9-22T10:37:18Z
2020-09-22T08:39:27Z,42.805,6.029,13.2979,4.59979,2470.194,2020-9-22T10:40:19Z
2020-09-22T08:42:29Z,42.805,6.029,13.2979,4.59979,2470.217,2020-9-22T10:43:21Z
2020-09-22T08:45:30Z,42.805,6.029,13.2979,4.59981,2470.171,2020-9-22T10:46:22Z
2020-09-22T08:48:34Z,42.805,6.029,13.2977,4.59980,2470.156,2020-9-22T10:49:26Z
2020-09-22T08:51:35Z,42.805,6.029,13.2980,4.59980,2470.203,2020-9-22T10:52:27Z
2020-09-22T08:54:38Z,42.805,6.029,13.2979,4.59981,2470.18,2020-9-22T10:55:30Z
2020-09-22T08:57:43Z,42.805,6.029,13.2976,4.59981,2470.156,2020-9-22T10:58:35Z
2020-09-22T09:00:47Z,42.805,6.029,13.2979,4.59981,2470.18,2020-9-22T11:01:39Z
2020-09-22T09:03:50Z,42.805,6.029,13.2979,4.59980,2470.203,2020-9-22T11:04:42Z
2020-09-22T09:06:51Z,42.805,6.029,13.2983,4.59986,2470.217,2020-9-22T11:07:44Z
2020-09-22T09:09:52Z,42.805,6.029,13.2977,4.59981,2470.217,2020-9-22T11:10:45Z
2020-09-22T09:12:56Z,42.805,6.029,13.2979,4.59981,2470.194,2020-9-22T11:13:48Z
2020-09-22T09:16:00Z,42.805,6.029,13.2976,4.59980,2470.194,2020-9-22T11:16:53Z
2020-09-22T09:19:03Z,42.805,6.029,13.2978,4.59981,2470.203,2020-9-22T11:19:56Z
2020-09-22T09:22:07Z,42.805,6.029,13.2978,4.59980,2470.203,2020-9-22T11:22:59Z
2020-09-22T09:25:10Z,42.805,6.029,13.2981,4.59980,2470.227,2020-9-22T11:26:02Z
2020-09-22T09:28:14Z,42.805,6.029,13.2975,4.59981,2470.203,2020-9-22T11:29:06Z
2020-09-22T09:31:16Z,42.805,6.029,13.2977,4.59981,2470.203,2020-9-22T11:32:08Z
2020-09-22T09:34:21Z,42.805,6.029,13.2973,4.59988,2470.217,2020-9-22T11:35:13Z
2020-09-22T09:37:23Z,42.805,6.029,13.2979,4.59981,2470.217,2020-9-22T11:38:16Z
2020-09-22T09:40:27Z,42.805,6.029,13.2979,4.59981,2470.227,2020-9-22T11:41:19Z
2020-09-22T09:43:30Z,42.805,6.029,13.2979,4.59981,2470.203,2020-9-22T11:44:23Z
2020-09-22T09:46:35Z,42.805,6.029,13.2982,4.59981,2470.203,2020-9-22T11:47:27Z
2020-09-22T09:49:39Z,42.805,6.029,13.2978,4.59979,2470.203,2020-9-22T11:50:31Z
2020-09-22T09:52:42Z,42.805,6.029,13.2976,4.59980,2470.24,2020-9-22T11:53:34Z
2020-09-22T09:55:44Z,42.805,6.029,13.2976,4.59980,2470.203,2020-9-22T11:56:36Z
2020-09-22T09:58:45Z,42.805,6.029,13.2979,4.59982,2470.217,2020-9-22T11:59:37Z
2020-09-22T10:01:46Z,42.805,6.029,13.2982,4.59980,2470.227,2020-9-22T12:02:38Z
2020-09-22T10:04:49Z,42.805,6.029,13.2979,4.59980,2470.203,2020-9-22T12:05:42Z
2020-09-22T10:07:54Z,42.805,6.029,13.2976,4.59979,2470.24,2020-9-22T12:08:46Z
2020-09-22T10:10:56Z,42.805,6.029,13.2979,4.59981,2470.25,2020-9-22T12:11:48Z
2020-09-22T10:14:00Z,42.805,6.029,13.2977,4.59980,2470.227,2020-9-22T12:14:53Z
2020-09-22T10:17:04Z,42.805,6.029,13.2979,4.59980,2470.24,2020-9-22T12:17:56Z
2020-09-22T10:20:08Z,42.805,6.029,13.2977,4.59981,2470.227,2020-9-22T12:21:00Z
2020-09-22T10:23:13Z,42.805,6.029,13.2980,4.59980,2470.264,2020-9-22T12:24:05Z
2020-09-22T10:26:17Z,42.805,6.029,13.2979,4.59980,2470.203,2020-9-22T12:27:10Z
2020-09-22T10:29:21Z,42.805,6.029,13.2980,4.59981,2470.203,2020-9-22T12:30:14Z
2020-09-22T10:32:25Z,42.805,6.029,13.2981,4.59981,2470.24,2020-9-22T12:33:17Z
2020-09-22T10:35:28Z,42.805,6.029,13.2976,4.59981,2470.203,2020-9-22T12:36:21Z
2020-09-22T10:38:31Z,42.805,6.029,13.2979,4.59980,2470.227,2020-9-22T12:39:23Z
2020-09-22T10:41:34Z,42.805,6.029,13.2978,4.59981,2470.24,2020-9-22T12:42:26Z
2020-09-22T10:44:37Z,42.805,6.029,13.2976,4.59981,2470.24,2020-9-22T12:45:29Z
2020-09-22T10:47:40Z,42.805,6.029,13.2977,4.59981,2470.213,2020-9-22T12:48:32Z
2020-09-22T10:50:43Z,42.805,6.029,13.2977,4.59980,2470.227,2020-9-22T12:51:36Z
2020-09-22T10:53:48Z,42.805,6.029,13.2976,4.59981,2470.203,2020-9-22T12:54:40Z
2020-09-22T10:56:52Z,42.805,6.029,13.2982,4.59980,2470.213,2020-9-22T12:57:44Z
2020-09-22T10:59:55Z,42.805,6.029,13.2976,4.59980,2470.227,2020-9-22T13:00:47Z
2020-09-22T11:02:58Z,42.805,6.029,13.2977,4.59982,2470.217,2020-9-22T13:03:50Z
2020-09-22T11:06:01Z,42.805,6.029,13.2981,4.59979,2470.227,2020-9-22T13:06:54Z
2020-09-22T11:09:03Z,42.805,6.029,13.2979,4.59981,2470.203,2020-9-22T13:09:55Z
2020-09-22T11:12:06Z,42.805,6.029,13.2981,4.59981,2470.227,2020-9-22T13:12:58Z
2020-09-22T11:15:08Z,42.805,6.029,13.2976,4.59981,2470.25,2020-9-22T13:16:00Z
2020-09-22T11:18:12Z,42.805,6.029,13.2973,4.59981,2470.227,2020-9-22T13:19:04Z
2020-09-22T11:21:16Z,42.805,6.029,13.2975,4.59981,2470.227,2020-9-22T13:22:08Z
2020-09-22T11:24:19Z,42.805,6.029,13.2978,4.59981,2470.25,2020-9-22T13:25:11Z
2020-09-22T11:27:23Z,42.805,6.029,13.2977,4.59981,2470.227,2020-9-22T13:28:15Z
2020-09-22T11:30:27Z,42.805,6.029,13.2979,4.59981,2470.24,2020-9-22T13:31:20Z
2020-09-22T11:33:30Z,42.805,6.029,13.2981,4.59980,2470.227,2020-9-22T13:34:22Z
2020-09-22T11:36:33Z,42.805,6.029,13.2977,4.59980,2470.227,2020-9-22T13:37:26Z
2020-09-22T11:39:38Z,42.805,6.029,13.2977,4.59981,2470.227,2020-9-22T13:40:30Z
2020-09-22T11:42:41Z,42.805,6.029,13.2976,4.59980,2470.24,2020-9-22T13:43:33Z
2020-09-22T11:45:42Z,42.805,6.029,13.2981,4.59980,2470.203,2020-9-22T13:46:34Z
2020-09-22T11:48:45Z,42.805,6.029,13.2982,4.59979,2470.227,2020-9-22T13:49:37Z
2020-09-22T11:51:49Z,42.805,6.029,13.2978,4.59981,2470.18,2020-9-22T13:52:41Z
2020-09-22T11:54:52Z,42.805,6.029,13.2979,4.59982,2470.194,2020-9-22T13:55:44Z
2020-09-22T11:57:56Z,42.805,6.029,13.2980,4.59980,2470.24,2020-9-22T13:58:48Z
2020-09-22T12:00:59Z,42.805,6.029,13.2976,4.59981,2470.227,2020-9-22T14:01:51Z
2020-09-22T12:04:02Z,42.805,6.029,13.2977,4.59979,2470.227,2020-9-22T14:04:54Z
2020-09-22T12:07:06Z,42.805,6.029,13.2978,4.59980,2470.203,2020-9-22T14:07:58Z
2020-09-22T12:10:09Z,42.805,6.029,13.2979,4.59980,2470.24,2020-9-22T14:11:01Z
2020-09-22T12:13:12Z,42.805,6.029,13.2976,4.59981,2470.203,2020-9-22T14:14:04Z
2020-09-22T12:16:15Z,42.805,6.029,13.2979,4.59980,2470.24,2020-9-22T14:17:08Z
2020-09-22T12:19:19Z,42.805,6.029,13.2982,4.59981,2470.217,2020-9-22T14:20:12Z
2020-09-22T12:22:21Z,42.805,6.029,13.2979,4.59986,2470.18,2020-9-22T14:23:13Z
2020-09-22T12:25:22Z,42.805,6.029,13.2980,4.59980,2470.203,2020-9-22T14:26:14Z
2020-09-22T12:28:23Z,42.805,6.029,13.2979,4.59981,2470.156,2020-9-22T14:29:15Z
2020-09-22T12:31:25Z,42.805,6.029,13.2978,4.59987,2470.166,2020-9-22T14:32:18Z
2020-09-22T12:34:27Z,42.805,6.029,13.2979,4.59980,2470.156,2020-9-22T14:35:20Z
2020-09-22T12:37:29Z,42.805,6.029,13.2979,4.59980,2470.18,2020-9-22T14:38:21Z
2020-09-22T12:40:33Z,42.805,6.029,13.2979,4.59980,2470.203,2020-9-22T14:41:25Z
2020-09-22T12:43:36Z,42.805,6.029,13.2978,4.59979,2470.227,2020-9-22T14:44:28Z
2020-09-22T12:46:39Z,42.805,6.029,13.2977,4.59980,2470.217,2020-9-22T14:47:31Z
2020-09-22T12:49:42Z,42.805,6.029,13.2979,4.59979,2470.194,2020-9-22T14:50:35Z
2020-09-22T12:52:44Z,42.805,6.029,13.2976,4.59980,2470.18,2020-9-22T14:53:36Z
2020-09-22T12:55:49Z,42.805,6.029,13.2978,4.59980,2470.217,2020-9-22T14:56:41Z
2020-09-22T12:58:51Z,42.805,6.029,13.2974,4.59979,2470.18,2020-9-22T14:59:43Z
2020-09-22T13:01:53Z,42.805,6.029,13.2980,4.59984,2470.18,2020-9-22T15:02:45Z
2020-09-22T13:04:56Z,42.805,6.029,13.2975,4.59981,2470.171,2020-9-22T15:05:48Z
2020-09-22T13:07:57Z,42.805,6.029,13.2976,4.59981,2470.217,2020-9-22T15:08:49Z
2020-09-22T13:11:01Z,42.805,6.029,13.2975,4.59979,2470.119,2020-9-22T15:11:53Z
2020-09-22T13:14:02Z,42.805,6.029,13.2976,4.59980,2470.133,2020-9-22T15:14:54Z
2020-09-22T13:17:06Z,42.805,6.029,13.2976,4.59986,2470.171,2020-9-22T15:17:58Z
2020-09-22T13:20:08Z,42.805,6.029,13.2976,4.59980,2470.171,2020-9-22T15:21:00Z
2020-09-22T13:23:11Z,42.805,6.029,13.2980,4.59980,2470.18,2020-9-22T15:24:04Z
2020-09-22T13:26:15Z,42.805,6.029,13.2979,4.59981,2470.18,2020-9-22T15:27:08Z
2020-09-22T13:29:17Z,42.805,6.029,13.2981,4.59979,2470.156,2020-9-22T15:30:09Z
2020-09-22T13:32:20Z,42.805,6.029,13.2982,4.59986,2470.119,2020-9-22T15:33:12Z
2020-09-22T13:35:24Z,42.805,6.029,13.2982,4.59981,2470.18,2020-9-22T15:36:16Z
2020-09-22T13:38:28Z,42.805,6.029,13.2974,4.59979,2470.194,2020-9-22T15:39:20Z
2020-09-22T13:41:33Z,42.805,6.029,13.2976,4.59981,2470.171,2020-9-22T15:42:25Z
2020-09-22T13:44:34Z,42.805,6.029,13.2980,4.59980,2470.156,2020-9-22T15:45:26Z
2020-09-22T13:47:36Z,42.805,6.029,13.2977,4.59980,2470.156,2020-9-22T15:48:28Z
2020-09-22T13:50:38Z,42.805,6.029,13.2975,4.59980,2470.18,2020-9-22T15:51:30Z
2020-09-22T13:53:42Z,42.805,6.029,13.2976,4.59979,2470.156,2020-9-22T15:54:34Z
2020-09-22T13:56:44Z,42.805,6.029,13.2978,4.59980,2470.133,2020-9-22T15:57:37Z
2020-09-22T13:59:46Z,42.805,6.029,13.2977,4.59980,2470.156,2020-9-22T16:00:38Z
2020-09-22T14:02:47Z,42.805,6.029,13.2982,4.59981,2470.156,2020-9-22T16:03:39Z
2020-09-22T14:05:52Z,42.805,6.029,13.2978,4.59979,2470.156,2020-9-22T16:06:44Z
2020-09-22T14:08:55Z,42.805,6.029,13.2979,4.59980,2470.133,2020-9-22T16:09:47Z
2020-09-22T14:11:56Z,42.805,6.029,13.2980,4.59982,2470.171,2020-9-22T16:12:49Z
2020-09-22T14:15:01Z,42.805,6.029,13.2979,4.59982,2470.133,2020-9-22T16:15:53Z
2020-09-22T14:18:04Z,42.805,6.029,13.2979,4.59979,2470.156,2020-9-22T16:18:57Z
2020-09-22T14:21:06Z,42.805,6.029,13.2979,4.59979,2470.147,2020-9-22T16:21:58Z
2020-09-22T14:24:08Z,42.805,6.029,13.2979,4.59980,2470.156,2020-9-22T16:25:00Z
2020-09-22T14:27:12Z,42.805,6.029,13.2979,4.59980,2470.133,2020-9-22T16:28:04Z
2020-09-22T14:30:16Z,42.805,6.029,13.2977,4.59980,2470.156,2020-9-22T16:31:09Z
2020-09-22T14:33:20Z,42.805,6.029,13.2979,4.59982,2470.133,2020-9-22T16:34:12Z
2020-09-22T14:36:23Z,42.805,6.029,13.2978,4.59979,2470.156,2020-9-22T16:37:15Z
2020-09-22T14:39:26Z,42.805,6.029,13.2977,4.59978,2470.11,2020-9-22T16:40:19Z
2020-09-22T14:42:31Z,42.805,6.029,13.2976,4.59979,2470.11,2020-9-22T16:43:23Z
2020-09-22T14:45:35Z,42.805,6.029,13.2976,4.59980,2470.133,2020-9-22T16:46:27Z
2020-09-22T14:48:36Z,42.805,6.029,13.2976,4.59979,2470.147,2020-9-22T16:49:29Z
2020-09-22T14:51:41Z,42.805,6.029,13.2979,4.59979,2470.11,2020-9-22T16:52:33Z
2020-09-22T14:54:43Z,42.805,6.029,13.2979,4.59980,2470.124,2020-9-22T16:55:35Z
2020-09-22T14:57:44Z,42.805,6.029,13.2977,4.59981,2470.133,2020-9-22T16:58:37Z
2020-09-22T15:00:46Z,42.805,6.029,13.2974,4.59979,2470.087,2020-9-22T17:01:38Z
2020-09-22T15:03:49Z,42.805,6.029,13.2975,4.59979,2470.11,2020-9-22T17:04:42Z
2020-09-22T15:06:53Z,42.805,6.029,13.2974,4.59978,2470.133,2020-9-22T17:07:45Z
2020-09-22T15:09:54Z,42.805,6.029,13.2979,4.59979,2470.1,2020-9-22T17:10:47Z
2020-09-22T15:12:59Z,42.805,6.029,13.2980,4.59979,2470.11,2020-9-22T17:13:51Z